Regional Weather Roundup
Issued by NWS

Home | Current Version | Previous Version | Graphics & Text | Print | Product List | Glossary On
Versions: 1 2 3 4 5 6 7 8 9 10 11 12 13 14 15 16 17 18 19 20 21 22 23 24 25 26 27 28 29 30 31 32 33 34 35 36 37 38 39 40 41 42 43 44 45 46 47 48 49 50
000
ASUS43 KMPX 281601
RWRMN
WEATHER ROUNDUP FOR MINNESOTA
NATIONAL WEATHER SERVICE TWIN CITIES/CHANHASSEN MN
1100 AM CDT TUE JUL 28 2015


NOTE: "FAIR" INDICATES FEW OR NO CLOUDS BELOW 12,000 FEET WITH NO
SIGNIFICANT WEATHER AND/OR OBSTRUCTIONS TO VISIBILITY. N/A MEANS
CURRENT SKY AND/OR WEATHER CONDITIONS ARE NOT AVAILABLE.

MNZ060>063-068>070-281700-
   Twin Cities Metro

CITY           SKY/WX    TMP DP  RH WIND       PRES   REMARKS
TWIN CITIES    CLOUDY    75  68  78 S15       29.82R
ST PAUL        CLOUDY    76  70  82 S15G23    29.82R
CRYSTAL        CLOUDY    77  69  76 S15G23    29.81R
BLAINE         CLOUDY    77  73  88 S14       29.81R
LAKEVILLE      CLOUDY    72  66  83 SE8       29.84S
EDEN PRAIRIE   CLOUDY    75  68  78 S14       29.82R
SOUTH ST PAUL  CLOUDY    73  71  92 S10G16    29.83R
LAKE ELMO      FAIR      73  70  88 S14G22    29.84R
$$
MNZ001>005-007-008-013>017-022>024-027-028-281700-
   Northwest Minnesota

CITY           SKY/WX    TMP DP  RH WIND       PRES   REMARKS
BEMIDJI        CLOUDY    73  70  92 SW9       29.68S
HALLOCK        PTSUNNY   79  70  73 S18G24    29.55F
ROSEAU         CLOUDY    77  72  83 S15G21    29.62F
WARROAD        CLOUDY    77  73  88 SE17      29.64F
THIEF RVR FALL CLOUDY    73  68  83 S14G21    29.63F
CROOKSTON      PTSUNNY   75  68  78 SW18G26   29.63S
FOSSTON        CLOUDY    73  66  78 S20G25    29.67F
DETROIT LAKES  PTSUNNY   73  68  83 SW14G25   29.73R
MOORHEAD       MOSUNNY   73  66  78 SW18G24   29.70R
PARK RAPIDS    CLOUDY    73  68  84 SW15      29.73R
MAHNOMEN       PTSUNNY   73  67  83 S15G25    29.68S
$$
MNZ006-009>011-018-025>026-281700-
   North Central Minnesota

CITY           SKY/WX    TMP DP  RH WIND       PRES   REMARKS
BAUDETTE       CLOUDY    73  71  93 SE10      29.65F
FLAG ISLAND    LGT RAIN  73  70  88 S21G30    29.64R
INTL FALLS     CLOUDY    73  69  87 SE12      29.72S
WASKISH        DRIZZLE   72  70  94 SE7G18    29.66F
BIG FORK       LGT RAIN  72  70  94 SE7       29.71F
LONGVILLE      CLOUDY    73  68  83 S14G22    29.73S
GRAND RAPIDS   CLOUDY    73  68  83 S12G22    29.75R
CRANE LAKE     CLOUDY    70  68  94 SE1       29.76S
ORR            DRIZZLE   72  66  83 CALM      29.73R
COOK           CLOUDY    72  68  88 CALM      29.77R
WALKER         CLOUDY    71  68  92 S10G17    29.70S
$$
MNZ012-019>021-037-281700-
   Northeast Minnesota

CITY           SKY/WX    TMP DP  RH WIND       PRES   REMARKS
DULUTH         CLOUDY    76  69  79 S14       29.77R
ELY            CLOUDY    73  66  78 SE10      29.78R
HIBBING        CLOUDY    74  69  85 VRB7      29.75R
EVELETH        CLOUDY    72  68  88 S14       29.77R
DULUTH HARBOR  CLOUDY    77  72  83 S17G25    29.74R
TWO HARBORS    CLOUDY    75  70  83 E5        29.75R
SILVER BAY     CLOUDY    73  66  78 E6        29.76F
GRAND MARAIS     N/A     59  55  87 NE9       29.84F
G MARAIS ARPRT   N/A     66  59  77 SE8       29.88F
$$
MNZ029>031-032-039>041-046>048-054>057-064-281700-
   West Central Minnesota

CITY           SKY/WX    TMP DP  RH WIND       PRES   REMARKS
FERGUS FALLS   PTSUNNY   75  66  73 SW23      29.72F
WHEATON        PTSUNNY   75  66  73 SW17G25   29.76F
MORRIS         PTSUNNY   79  70  73 SW15G21   29.77R
ALEXANDRIA     PTSUNNY   75  68  78 W14G22    29.79S
ELBOW LAKE     PTSUNNY   75  68  78 SW20G25   29.76S
WADENA         PTSUNNY   70  68  94 SW14      29.74S
GLENWOOD       CLOUDY    73  68  83 SW13      29.79F
APPLETON       CLOUDY    79  68  69 SW12      29.78S
BENSON         CLOUDY    79  68  69 W10G17    29.79S
ORTONVILLE     PTSUNNY   77  66  69 W15G22    29.78S
MADISON        PTSUNNY   79  68  69 W9        29.79S
WILLMAR        FAIR      73  72  94 CALM      29.83R
$$
MNZ033>034-036-042>043-049>051-058-059-281700-
   Central Minnesota

CITY           SKY/WX    TMP DP  RH WIND       PRES   REMARKS
ST CLOUD       PTSUNNY   76  68  76 S23G29    29.81R
SAUK CENTRE    CLOUDY    73  68  83 SW12      29.80S
PAYNESVILLE    CLOUDY    71  66  85 S8        29.83R
AITKIN         CLOUDY    79  70  73 S10G16    29.75R
PINE RIVER     CLOUDY    73  66  78 SW14G21   29.78R
BRAINERD       PTSUNNY   77  67  71 S23G30    29.76S
STAPLES        CLOUDY    72  66  83 SW13G21   29.76S
LONG PRAIRIE   CLOUDY    72  68  88 SW13      29.80R
LITTLE FALLS   PTSUNNY   75  64  69 S13       29.79S
LITCHFIELD     CLOUDY    73  72  94 S5        29.85R
BUFFALO        CLOUDY    76  67  74 S9        29.84R
MAPLE LAKE     CLOUDY    75  70  83 S9G16     29.84R
$$
MNZ037-044-045-052-053-281700-
   East Central Minnesota

CITY           SKY/WX    TMP DP  RH WIND       PRES   REMARKS
PRINCETON      PTSUNNY   77  70  78 S13G18    29.81R
MORA           CLOUDY    73  66  78 S17G26    29.81R
CAMBRIDGE      CLOUDY    79  66  65 S18G28    29.78R
RUSH CITY      CLOUDY    76  70  84 S18G24    29.79R
MOOSE LAKE     CLOUDY    75  70  83 S7        29.75R
HINCKLEY       CLOUDY    73  70  88 S8G17     29.79R
CLOQUET        CLOUDY    75  68  78 S15G21    29.77R
MCGREGOR       CLOUDY    77  70  78 S13G20    29.77R
$$
MNZ071>073-080-081-089-090-097-098-281700-
   Southwest Minnesota

CITY           SKY/WX    TMP DP  RH WIND       PRES   REMARKS
MONTEVIDEO     CLOUDY    81  79  94 NW9       29.80F
GRANITE FALLS  CLOUDY    77  69  76 W5        29.81S
CANBY          MOSUNNY   80  67  66 SW7G20    29.80R
MARSHALL       MOSUNNY   81  66  61 SW8       29.80S
REDWOOD FALLS  CLOUDY    73  68  84 SE7       29.82R
OLIVIA         CLOUDY    72  64  78 SE7       29.83R
PIPESTONE      MOSUNNY   79  70  73 SW14      29.83R
WINDOM         CLOUDY    75  70  83 S10       29.84R
WORTHINGTON    PTSUNNY   75  66  73 S17       29.84R
JACKSON        CLOUDY    73  70  88 S15       29.85R
SLAYTON        PTSUNNY   77  68  73 SW18      29.83R
$$
MNZ065>067-074>077-082>085-091>093-281700-
   South Central Minnesota

CITY           SKY/WX    TMP DP  RH WIND       PRES   REMARKS
MANKATO        CLOUDY    72  66  83 SE6       29.85S
NEW ULM        CLOUDY    72  70  94 SE5       29.84R
ST JAMES       CLOUDY    75  72  88 S7        29.85R
FAIRMONT       CLOUDY    73  66  78 S9        29.84R
GLENCOE        CLOUDY    73  69  86 S6        29.85R
FARIBAULT      CLOUDY    72  68  88 SE5       29.86R
OWATONNA       CLOUDY    73  66  78 S10       29.88R
WASECA         CLOUDY    72  68  88 E5        29.87R
ALBERT LEA     CLOUDY    72  72 100 SE16      29.86R
$$
MNZ078>079-086>088-094>096-281700-
   Southeast Minnesota

CITY           SKY/WX    TMP DP  RH WIND       PRES   REMARKS
ROCHESTER      CLOUDY    70  67  90 SE17G28   29.86F
RED WING       CLOUDY    73  70  88 SE7       29.83R
STANTON        CLOUDY    73  67  83 SE6       29.83S
DODGE CENTER   CLOUDY    72  66  83 S12G24    29.87R
WINONA         RAIN      70  68  94 SE12      29.93F
AUSTIN         CLOUDY    73  70  88 SE9       29.88R
PRESTON        LGT RAIN  67  66  95 SE18G24   29.87F
$$
ABBREVIATIONS USED IN REMARKS
   TC - TEMPERATURES IN CELSIUS
  WCI - WIND CHILL INDEX
   HX - HEAT INDEX
  VSB - VISIBILITY
$$



USA.gov is the U.S. government's official web portal to all federal, state and local government web resources and services.